Vertical_Velocity
-5 -6 -6 -8 -5 8 -1 10 -11 -5 21 15 67 -10 -67 1 -5 -0 3 4 -16 -2 0 -4 1 4 -5 -5 3 -0 1 -1 -5 3 -0 -2 7 1 7 1 -5 -0 -1 -1
-3 -6 -8 -2 -1 -5 18 0 6 14 23 -22 9 -12 -15 -1 -7 -5 3 -9 -7 5 2 -5 0 3 -9 3 -2 2 -4 -4 -1 2 1 -7 1 3 4 1 18 5 10 2
-5 -10 -5 -1 0 0 25 16 9 13 3 14 8 -12 -21 -12 3 9 3 9 -3 -5 -11 0 -2 -5 4 0 -1 -1 1 -3 4 -4 15 -2 3 -1 1 -3 -8 5 -2 1
-6 -5 -4 3 3 13 6 17 -16 13 -1 -13 89 -3 16 16 -17 -9 27 -7 -18 3 -7 10 -10 -8 2 -2 2 -2 0 -7 3 -4 1 2 1 3 2 -1 1 5 9 12
-4 -4 -4 8 2 18 10 1 24 18 -20 84 18 5 -19 5 28 -4 16 -2 16 6 -1 7 -1 10 2 -0 2 1 -1 -2 -4 1 2 2 6 1 -1 -2 -4 2 4 3
-2 -1 -3 7 6 18 25 26 -12 7 1 -0 11 -13 -20 -18 28 8 14 26 20 -13 22 -2 -11 6 3 -0 0 4 -2 1 -0 0 -3 -1 -10 -2 5 -1 -5 2 15 2
0 3 7 13 3 12 -10 31 42 5 35 28 -24 -2 3 -5 -24 19 19 5 8 15 13 -1 -6 3 5 -4 3 1 7 -0 -0 2 -3 -2 19 1 -1 -4 7 4 -1 2
1 2 2 -9 14 27 7 26 24 35 7 7 22 1 -8 19 12 23 19 8 25 -3 -4 8 -2 -7 -0 -4 3 8 10 3 -6 -1 -4 -0 1 1 -2 -3 4 -2 -0 -5
3 4 6 1 -6 -12 6 29 2 14 -5 -33 3 20 24 25 29 2 -5 -1 22 3 2 6 -11 -13 11 -12 1 6 1 -3 -4 1 -7 -5 3 0 -2 6 0 -1 6 -3
-3 9 7 13 7 -7 11 16 20 -12 40 8 -7 13 12 23 6 16 17 -8 -3 7 -4 -0 -3 -5 10 -16 -7 -1 -1 1 0 2 -4 -2 -0 1 4 -6 5 -0 -3 -2
-4 -1 1 -0 6 -12 6 22 6 33 -19 11 6 17 -3 17 11 2 -25 41 7 10 3 -7 -9 3 5 -5 8 3 6 -9 -1 -2 2 -10 -2 -2 -8 -1 -3 -3 -1 -4
6 3 8 4 15 -5 -19 11 22 11 5 4 8 16 16 16 12 15 12 17 5 -3 -4 -8 2 -4 -6 3 -10 -1 -22 3 -2 -4 14 4 -7 -2 1 -1 2 -2 -4 1
-3 -1 2 15 19 -4 -1 2 2 35 3 20 38 -18 8 3 20 2 -2 -10 -11 11 7 4 7 -8 12 -22 -10 15 -1 -3 -7 -5 2 5 5 3 -2 1 0 0 4 1
1 -1 -3 3 -5 0 -8 6 30 -2 3 21 -15 8 11 22 10 26 -4 14 5 10 16 -5 -10 15 0 -4 5 2 6 -5 6 0 2 -0 -2 2 -2 -1 3 -1 -1 4
-6 -8 -18 -14 -22 3 5 12 30 3 3 -26 -4 4 4 2 13 13 2 -3 1 21 32 -3 10 17 12 -7 0 -10 4 16 -3 4 2 2 2 -4 2 -3 -3 -2 3 6
-2 4 -2 -3 -9 -6 -13 -4 -1 23 -1 15 16 15 -18 -7 10 21 -1 23 27 0 3 3 -8 17 2 -14 -8 12 -2 8 -1 6 1 0 1 1 -0 1 -1 -5 2 3
8 16 11 -16 -3 -0 8 -2 11 -18 -12 2 -10 3 2 3 2 1 39 39 1 3 -0 7 6 12 5 -19 1 18 8 -3 -3 4 4 -2 -2 -5 -3 -1 -3 -2 -4 -1
12 14 14 -5 -1 2 6 22 26 5 1 14 -11 -17 3 0 -1 -19 5 11 18 -9 -6 5 16 16 -5 -1 6 2 4 4 -5 0 4 1 6 -2 -6 -7 -4 -4 3 4
-2 1 8 -10 -3 15 4 19 3 -8 -4 -0 6 -9 -20 -1 -9 3 9 5 9 6 3 24 18 5 -14 4 16 -2 1 4 6 -7 -3 -1 -5 -4 -1 -1 1 -7 1 -2
-2 -3 -1 -1 -0 9 7 -1 22 41 29 13 -9 2 -0 -1 -2 12 -1 -11 5 12 -1 7 5 -10 -6 8 12 7 -12 -2 8 -1 0 -2 -4 1 6 -3 -8 -4 -2 2
-2 8 -1 -0 -7 -14 9 14 10 2 15 8 26 5 17 -5 1 4 5 7 3 4 2 7 1 1 1 -6 4 10 -7 1 -5 1 3 1 -5 1 -1 -2 -1 -1 0 -3
11 4 1 -5 -4 8 22 14 7 5 -12 -11 5 7 -6 3 18 25 7 8 5 -2 19 2 -19 28 -3 -6 -5 -5 -14 -8 -3 2 -4 4 2 3 2 1 2 3 -2 -4
-1 -2 1 2 7 2 6 -8 -15 5 -32 -11 -14 -16 3 2 11 3 4 5 -1 6 -8 -25 -1 15 12 6 -16 -16 -7 -10 7 3 4 -0 -1 3 5 5 -1 -1 -6 3
9 12 4 6 -2 -3 -19 -10 14 8 -4 17 7 -5 -14 -4 9 2 -8 -12 -1 -12 -21 -17 9 -8 7 0 -7 -9 -6 2 2 4 4 4 4 3 3 1 1 -4 -4 -3
2 6 14 -3 -8 5 -9 2 2 9 -5 -15 -6 -2 5 10 -1 -4 -6 -8 -14 -14 -21 -11 -10 -7 -7 -12 -12 -6 8 3 4 1 -4 5 -3 -4 -1 -0 -2 -5 -2 -3
-11 -21 2 10 4 -3 -3 -6 -3 -3 -2 9 16 11 10 4 -9 -5 -7 -9 -12 -12 -12 -2 1 -10 -17 -7 1 8 2 1 4 -2 -5 -4 0 -7 -3 5 -4 -1 -5 -5
-3 -8 7 10 10 5 -7 -6 -15 -4 -1 -5 -3 -3 -1 3 -8 -5 -6 -3 11 6 7 -5 -2 -3 5 -4 -7 1 -5 -6 -10 -8 -6 1 1 -9 -3 -7 -7 -2 -2 -4
Height
5541 5545 5550 5555 5564 5572 5576 5589 5594 5641 5661 5660 5649 5657 5687 5713 5721 5732 5738 5745 5752 5757 5760 5763 5765 5767 5770 5769 5770 5774 5776 5775 5778 5784 5784 5791 5793 5796 5797 5798 5802 5802 5804 5805
5522 5526 5531 5535 5540 5546 5558 5561 5581 5611 5631 5631 5634 5649 5673 5691 5701 5718 5725 5735 5740 5748 5751 5755 5756 5759 5758 5762 5765 5767 5769 5771 5774 5779 5780 5785 5785 5788 5789 5792 5796 5797 5799 5803
5504 5507 5512 5517 5523 5532 5546 5552 5567 5588 5607 5619 5622 5636 5658 5672 5688 5699 5712 5722 5727 5735 5741 5745 5746 5748 5750 5756 5757 5761 5765 5764 5769 5771 5778 5776 5781 5782 5785 5785 5788 5792 5794 5795
5489 5493 5498 5504 5511 5524 5533 5539 5551 5572 5582 5597 5604 5621 5643 5660 5670 5689 5697 5705 5717 5726 5731 5735 5737 5739 5743 5746 5749 5755 5758 5758 5763 5766 5771 5770 5775 5777 5777 5779 5783 5785 5790 5787
5478 5482 5486 5492 5503 5512 5518 5530 5547 5566 5575 5583 5598 5611 5624 5642 5664 5672 5686 5695 5708 5714 5719 5726 5730 5728 5733 5738 5743 5746 5749 5754 5753 5761 5764 5766 5769 5770 5773 5776 5777 5779 5781 5783
5467 5472 5477 5483 5494 5501 5507 5524 5542 5547 5566 5577 5584 5599 5620 5640 5652 5660 5678 5688 5695 5702 5714 5716 5720 5725 5727 5732 5737 5739 5744 5747 5749 5754 5757 5758 5757 5765 5766 5768 5769 5774 5774 5780
5457 5462 5467 5475 5483 5494 5506 5519 5534 5550 5554 5565 5578 5592 5614 5625 5640 5656 5663 5670 5682 5694 5698 5703 5709 5715 5720 5726 5728 5730 5735 5738 5741 5745 5748 5749 5760 5757 5760 5762 5764 5766 5769 5771
5448 5453 5459 5466 5472 5481 5493 5512 5520 5533 5543 5556 5570 5585 5599 5614 5625 5636 5649 5663 5674 5680 5687 5691 5698 5703 5710 5717 5721 5725 5728 5732 5734 5737 5740 5744 5749 5753 5755 5755 5759 5760 5761 5762
5440 5444 5451 5457 5464 5474 5488 5504 5520 5531 5542 5549 5567 5577 5591 5599 5610 5627 5636 5652 5661 5669 5674 5680 5687 5692 5699 5707 5712 5716 5721 5724 5727 5731 5733 5737 5744 5746 5748 5750 5752 5752 5754 5754
5431 5437 5443 5449 5458 5470 5480 5500 5516 5529 5538 5545 5554 5567 5580 5590 5602 5617 5630 5639 5649 5658 5664 5670 5677 5684 5692 5697 5705 5709 5714 5718 5721 5726 5727 5731 5736 5740 5742 5742 5749 5744 5747 5748
5422 5430 5436 5442 5449 5460 5471 5489 5503 5515 5527 5538 5548 5562 5570 5579 5589 5603 5621 5630 5636 5647 5653 5662 5670 5676 5683 5690 5698 5701 5707 5711 5714 5717 5720 5727 5727 5734 5735 5736 5736 5739 5739 5741
5413 5420 5426 5434 5443 5454 5465 5482 5496 5507 5517 5533 5543 5554 5561 5572 5583 5599 5608 5622 5629 5635 5644 5654 5662 5668 5674 5682 5688 5694 5698 5703 5710 5713 5719 5720 5720 5724 5726 5728 5730 5730 5731 5732
5405 5410 5417 5423 5433 5445 5460 5472 5488 5494 5508 5514 5527 5541 5556 5565 5575 5587 5598 5612 5621 5629 5638 5647 5653 5661 5668 5674 5681 5688 5691 5695 5699 5704 5709 5711 5714 5716 5717 5720 5722 5723 5724 5725
5399 5406 5413 5420 5429 5442 5460 5468 5481 5491 5507 5513 5523 5532 5542 5554 5567 5579 5592 5603 5613 5620 5629 5635 5643 5651 5658 5666 5673 5679 5685 5688 5693 5697 5701 5703 5708 5708 5707 5709 5713 5715 5714 5716
5396 5401 5407 5415 5424 5436 5446 5458 5470 5486 5499 5511 5522 5531 5536 5547 5558 5570 5586 5595 5603 5610 5616 5624 5634 5640 5647 5655 5663 5668 5674 5680 5683 5689 5690 5692 5695 5697 5700 5702 5703 5705 5707 5706
5391 5399 5405 5413 5421 5431 5444 5456 5469 5478 5489 5500 5513 5524 5532 5543 5554 5566 5578 5584 5591 5599 5606 5614 5622 5630 5637 5643 5651 5658 5662 5669 5675 5679 5681 5682 5685 5689 5691 5693 5694 5694 5694 5695
5386 5393 5398 5406 5418 5428 5443 5457 5461 5471 5485 5492 5505 5514 5524 5537 5545 5553 5564 5571 5580 5589 5598 5605 5613 5620 5626 5635 5642 5651 5652 5656 5661 5667 5673 5674 5675 5676 5677 5681 5683 5684 5683 5682
5378 5384 5391 5402 5415 5429 5442 5452 5460 5469 5481 5489 5496 5507 5519 5527 5541 5551 5557 5567 5576 5582 5592 5600 5606 5609 5619 5628 5636 5641 5645 5649 5654 5658 5662 5665 5667 5669 5669 5669 5671 5671 5670 5668
5374 5380 5387 5398 5412 5427 5437 5444 5454 5465 5475 5484 5492 5503 5514 5524 5537 5545 5553 5562 5570 5579 5586 5591 5597 5603 5614 5625 5630 5630 5636 5641 5646 5649 5652 5655 5656 5657 5657 5659 5660 5659 5658 5657
5372 5378 5386 5397 5407 5420 5431 5442 5446 5456 5465 5479 5488 5501 5513 5524 5535 5541 5548 5558 5568 5572 5579 5584 5588 5599 5608 5614 5616 5621 5627 5633 5638 5640 5642 5644 5645 5646 5647 5646 5646 5645 5644 5643
5368 5378 5386 5396 5407 5417 5428 5435 5441 5447 5456 5469 5481 5495 5509 5521 5531 5538 5544 5550 5557 5564 5572 5577 5583 5594 5600 5604 5611 5615 5620 5625 5628 5630 5631 5633 5634 5635 5634 5635 5633 5631 5631 5631
5369 5377 5383 5392 5402 5411 5417 5424 5433 5440 5451 5465 5480 5490 5502 5513 5519 5527 5535 5540 5548 5555 5564 5566 5579 5591 5593 5599 5602 5607 5611 5615 5620 5621 5622 5621 5621 5622 5621 5619 5619 5619 5618 5617
5364 5372 5380 5389 5396 5404 5410 5416 5430 5441 5454 5468 5479 5488 5496 5505 5512 5516 5525 5533 5540 5549 5554 5564 5579 5581 5587 5591 5593 5598 5601 5604 5606 5607 5609 5609 5609 5608 5608 5608 5607 5606 5606 5605
5361 5370 5377 5383 5390 5399 5409 5425 5435 5445 5457 5465 5475 5485 5493 5504 5509 5511 5518 5529 5539 5544 5554 5565 5572 5574 5577 5579 5583 5588 5591 5593 5594 5595 5596 5596 5597 5598 5598 5598 5596 5596 5595 5594
5357 5362 5369 5379 5388 5399 5410 5422 5432 5441 5451 5459 5470 5480 5490 5497 5502 5509 5519 5527 5533 5542 5553 5561 5564 5564 5565 5571 5575 5578 5581 5582 5584 5585 5588 5588 5589 5589 5589 5588 5586 5585 5583 5582
5353 5359 5371 5381 5391 5400 5411 5422 5433 5443 5451 5458 5467 5476 5483 5490 5497 5507 5516 5524 5531 5540 5546 5550 5552 5553 5560 5565 5567 5568 5571 5574 5576 5577 5580 5580 5579 5579 5579 5578 5576 5574 5571 5568
5349 5357 5367 5378 5388 5399 5411 5420 5433 5444 5447 5455 5464 5471 5479 5489 5496 5504 5512 5521 5528 5531 5534 5536 5540 5545 5550 5554 5559 5561 5564 5566 5567 5567 5570 5571 5570 5569 5567 5565 5563 5561 5556 5551